Location: *
(40.7190°S, 175.7520°E)
Time: 09:31:09
(UTC+00:00)

Daily predictions for brighter satellites

Satellite Brightness Start Highest point End
(mag) Time Altitude Azimuth Time Altitude Azimuth Time Altitude Azimuth
Cosmos 1980 Rocket 4.1 14:54:46 27° SE 14:54:46 27° SE 14:57:27 10° SE
ATLAS 3B CENTAUR R/B 4.2 15:31:24 35° N 15:32:38 36° NNE 15:46:42 10° E
ATLAS CENTAUR R/B 4.2 15:35:35 12° ENE 15:35:35 12° ENE 15:36:42 10° E
ISS -0.4 15:45:03 14° ESE 15:45:03 14° ESE 15:45:35 10° ESE
CZ-3 R/B 4.3 15:33:17 38° NW 15:42:38 48° N 15:53:12 10° ENE
Meteor 2-4 Rocket 4.0 15:44:16 10° S 15:49:53 66° E 15:51:20 48° NE
SL-16 R/B 3.6 15:46:33 10° S 15:50:27 34° SSW 15:50:27 34° SSW
Cosmos 1891 Rocket 4.3 16:01:41 72° SW 16:01:41 72° SW 16:07:23 10° S
Cosmos 1072 Rocket 4.5 16:03:43 69° WSW 16:03:43 69° WSW 16:10:00 10° S
ATLAS 2AS CENTAUR R/B 4.2 16:09:50 18° SSW 16:09:53 18° SSW 16:13:58 10° S
Atlas Centaur 2 3.5 16:11:50 22° NNE 16:11:50 22° NNE 16:14:52 10° NE
Cosmos 1697 Rocket 4.3 16:13:03 21° SSW 16:13:03 21° SSW 16:15:56 10° S
USA 215 3.3 16:05:16 10° NNE 16:11:31 56° NW 16:11:31 56° NW
SL-16 R/B 2.5 16:10:15 42° N 16:12:03 63° ENE 16:17:43 10° SSE
DELTA 2 R/B (1) 3.4 16:12:33 80° NNW 16:12:41 81° N 16:18:20 10° E
H-2A R/B 2.3 16:10:10 10° SSE 16:14:12 67° SSE 16:14:12 67° SSE
OAO 3 Rocket 4.0 16:16:41 38° NNE 16:16:41 38° NNE 16:20:28 10° ENE
Lacrosse 5 2.9 16:16:33 23° SSW 16:19:27 45° SE 16:24:22 10° ENE
Cosmos 2263 Rocket 2.1 16:19:49 10° SSW 16:25:28 87° ESE 16:31:05 10° NNE
Cosmos 773 Rocket 3.9 16:25:18 66° WNW 16:25:47 71° WSW 16:31:10 10° SSE
Cosmos 2322 Rocket 2.4 16:24:27 31° N 16:27:09 71° ENE 16:32:50 10° SSE
Cosmos 1674 Rocket 4.1 16:23:57 10° S 16:28:26 59° E 16:32:52 10° NNE
Cosmos 2227 4.1 16:23:04 10° SSW 16:28:52 72° WNW 16:34:33 10° NNE
Cosmos 2360 Rocket 3.6 16:23:51 10° N 16:28:58 37° ENE 16:34:09 10° SE
CZ-4B R/B 3.1 16:30:43 66° WSW 16:30:43 66° WSW 16:34:51 10° SSW
Cosmos 1666 2.8 16:30:36 72° ENE 16:30:45 74° E 16:34:39 10° SSE
Landsat 5 3.4 16:28:35 10° SSE 16:33:02 85° WSW 16:33:37 66° NNW
Meteor 1-5 Rocket 4.1 16:32:52 55° WNW 16:33:28 58° WSW 16:38:47 10° S
Cosmos 1464 Rocket 4.3 16:34:58 42° W 16:35:16 42° WSW 16:41:16 10° S
STARLINK-1179 3.9 16:36:32 46° E 16:36:32 46° E 16:38:56 10° ENE
Cosmos 1980 Rocket 3.3 16:36:33 27° SW 16:36:33 27° SW 16:41:01 10° S
STARLINK-1176 3.8 16:36:58 47° ENE 16:36:58 47° ENE 16:39:23 10° ENE
STARLINK-1173 3.6 16:39:20 54° E 16:39:20 54° E 16:41:59 10° ENE
STARLINK-1136 3.5 16:39:47 55° E 16:39:47 55° E 16:42:25 10° ENE
COBE Rocket 4.1 16:34:03 10° SSE 16:39:20 81° ENE 16:44:31 10° N
ALOS 2.2 16:35:17 10° NNE 16:39:59 85° WNW 16:44:46 10° SSW
Cosmos 1184 Rocket 3.8 16:38:35 26° NNE 16:40:05 46° E 16:43:20 10° SSE
STARLINK-1153 3.4 16:41:32 60° ESE 16:41:32 60° ESE 16:44:30 10° ENE
STARLINK-1180 3.3 16:41:40 62° SE 16:41:40 62° SE 16:44:45 10° ENE
FENGYUN 3A 3.5 16:36:36 10° N 16:42:00 81° WNW 16:47:30 10° SSW
STARLINK-1174 3.3 16:42:13 60° ESE 16:42:13 60° ESE 16:45:08 10° ENE
STARLINK-1139 3.3 16:42:22 63° SE 16:42:22 63° SE 16:45:27 10° ENE
STARLINK-1133 3.3 16:42:44 62° ESE 16:42:44 62° ESE 16:45:41 10° ENE
STARLINK-1151 3.3 16:43:02 62° ESE 16:43:02 62° ESE 16:45:57 10° ENE
STARLINK-1183 3.1 16:45:50 69° SE 16:45:50 69° SE 16:48:57 10° ENE
STARLINK-1181 3.1 16:46:16 70° SE 16:46:16 70° SE 16:49:24 10° ENE
CZ-4B R/B 4.2 16:40:56 10° NE 16:46:24 50° ESE 16:51:56 10° S
STARLINK-1196 3.0 16:46:42 71° SE 16:46:42 71° SE 16:49:51 10° ENE
STARLINK-1186 3.0 16:47:10 71° SE 16:47:10 71° SE 16:50:17 10° ENE
STARLINK-1185 3.0 16:47:34 72° SSE 16:47:37 72° SE 16:50:46 10° ENE
STARLINK-1182 3.0 16:47:32 71° S 16:47:40 73° SE 16:50:55 10° ENE
STARLINK-1160 3.0 16:47:35 71° S 16:47:44 73° SE 16:50:58 10° ENE
STARLINK-1161 3.0 16:47:37 70° S 16:47:47 73° SE 16:51:02 10° ENE
STARLINK-1164 3.0 16:47:39 71° S 16:47:48 73° SE 16:51:01 10° ENE
STARLINK-1145 3.0 16:47:41 70° S 16:47:51 73° SE 16:51:05 10° ENE
STARLINK-1172 3.0 16:47:47 71° SSE 16:47:54 73° SE 16:51:05 10° ENE
STARLINK-1168 3.0 16:47:47 71° S 16:47:56 73° SE 16:51:10 10° ENE
STARLINK-1175 3.0 16:48:04 73° SE 16:48:04 73° SE 16:51:11 10° ENE
STARLINK-1147 3.0 16:48:26 73° SSE 16:48:30 74° SE 16:51:40 10° NE
STARLINK-1146 2.9 16:48:52 74° SSE 16:48:57 74° SE 16:52:07 10° NE
STARLINK-1152 2.9 16:49:19 74° SSE 16:49:24 75° SE 16:52:35 10° NE
STARLINK-1195 2.9 16:49:48 75° SSE 16:49:51 76° SE 16:52:59 10° NE
STARLINK-1137 2.9 16:50:11 75° S 16:50:19 77° SE 16:53:29 10° NE
STARLINK-1142 2.9 16:50:38 76° S 16:50:45 78° SE 16:53:53 10° NE
STARLINK-1127 2.9 16:51:02 74° S 16:51:13 79° SE 16:54:22 10° NE
STARLINK-1184 2.9 16:51:29 74° S 16:51:40 79° SE 16:54:49 10° NE
STARLINK-1193 2.8 16:51:58 76° S 16:52:07 80° SE 16:55:15 10° NE
STARLINK-1194 2.8 16:52:21 74° SSW 16:52:34 81° SE 16:55:44 10° NE
Cosmos 405 Rocket 2.6 16:50:47 30° NNW 16:52:42 81° W 16:56:47 10° S
BREEZE-M DEB (TANK) 4.2 16:52:12 19° SSW 16:52:51 20° S 16:56:01 10° SE
STARLINK-1150 2.9 16:54:55 67° WSW 16:55:18 83° NW 16:58:37 10° NE
OAO 2 Rocket 4.0 16:55:43 30° NW 16:57:36 43° N 17:02:27 10° ENE
SL-8 R/B 4.0 16:56:17 29° NW 16:58:43 65° NE 17:03:34 10° ESE
Cosmos 1092 Rocket 3.9 16:52:42 10° S 16:59:01 73° W 17:05:18 10° N
Cosmos 1908 Rocket 3.5 16:56:30 10° N 17:00:52 87° E 17:05:18 10° S
STARLINK-1132 2.9 17:00:42 53° WSW 17:01:22 72° NW 17:04:42 10° NE
STARLINK-1177 2.9 17:02:37 49° WSW 17:03:20 69° NW 17:06:40 10° NE
Okean O Rocket 2.2 16:59:00 10° NNE 17:03:25 61° ESE 17:07:54 10° S
EXPRESS MD2 4.4 17:02:04 20° SW 17:04:24 50° SSE 17:10:41 10° ENE
STARLINK-1167 3.0 17:03:49 47° WSW 17:04:36 66° NW 17:07:55 10° NE
METEOR-M 4.2 16:59:32 10° N 17:04:46 52° W 17:10:05 10° SSW
Cosmos 2237 4.4 16:59:10 10° NNW 17:04:53 74° ENE 17:10:40 10° SSE
PSLV R/B 3.9 17:01:46 10° N 17:05:39 51° W 17:09:32 10° SSW
STARLINK-1163 3.0 17:06:40 42° WSW 17:07:34 61° NW 17:10:54 10° NE
NOAA 6 4.1 17:02:43 10° NNE 17:07:54 85° ESE 17:13:10 10° SSW
Cosmos 923 Rocket 4.0 17:03:19 10° NNW 17:08:34 84° ENE 17:13:53 10° SSE
MOS 1-B 4.3 17:03:28 10° N 17:09:13 63° WNW 17:15:02 10° SSW
Cosmos 1536 3.5 17:09:41 31° W 17:10:02 31° WSW 17:13:42 10° SSW
Cosmos 1066 Rocket 4.1 17:04:32 10° SSW 17:10:04 77° W 17:15:40 10° N
Cosmos 1733 Rocket 4.0 17:10:17 27° W 17:10:42 28° WSW 17:14:37 10° SSW
Cosmos 1634 Rocket 3.9 17:05:41 10° NNW 17:11:53 70° W 17:18:14 10° S
SJ-12 4.3 17:08:39 10° NNW 17:12:29 38° W 17:16:22 10° SSW
Cosmos 1378 Rocket 3.5 17:09:01 10° SSW 17:13:22 58° W 17:17:37 10° N
ATLAS CENTAUR R/B 1.3 17:11:48 29° WNW 17:13:34 56° SW 17:17:38 10° SSE
ISS -2.2 17:18:02 21° SW 17:19:12 26° SSW 17:22:10 10° SE
STARLINK-1190 4.5 17:15:17 11° SW 17:19:20 50° SSE 17:23:27 10° ENE
Cosmos 2026 Rocket 4.0 17:16:06 10° SSW 17:22:29 67° W 17:28:44 10° N
Cosmos 2142 Rocket 4.4 17:17:26 10° NNW 17:23:40 76° W 17:29:55 10° S
Cosmos 2322 4.4 17:18:21 10° N 17:23:57 58° ENE 17:29:37 10° SSE
CZ-4C R/B 2.9 17:18:44 10° NW 17:26:56 74° SW 17:34:04 10° SSE
CZ-4B R/B 1.9 17:25:22 10° S 17:28:22 35° WSW 17:31:05 12° NW
Cosmos 1680 Rocket 3.5 17:24:00 10° NNW 17:29:19 84° WSW 17:34:44 10° SSE
Cosmos 2219 Rocket 3.5 17:28:22 10° N 17:33:37 42° ENE 17:38:56 10° SE
STARLINK-1170 4.0 17:32:46 18° W 17:34:38 31° NW 17:37:42 10° NNE
Cosmos 1842 4.3 17:31:54 10° S 17:35:46 50° E 17:39:34 10° NNE
Cosmos 158 Rocket 3.9 17:31:13 10° NNW 17:36:10 83° ENE 17:41:07 10° SSE
Cosmos 1378 3.1 17:38:43 10° SSW 17:42:29 64° W 17:46:10 10° N
Cosmos 1975 2.8 17:38:23 10° N 17:42:29 80° W 17:46:41 10° S
Cosmos 1544 3.4 17:38:54 10° N 17:42:36 72° E 17:46:23 10° SSE
Cosmos 1743 3.2 17:39:10 10° NNW 17:42:53 40° WSW 17:46:38 10° S
Cosmos 1975 Rocket 3.0 17:39:45 10° S 17:44:12 80° W 17:48:33 10° N
Cosmos 1689 Rocket 2.5 17:41:18 10° S 17:44:13 42° WSW 17:47:06 10° NW
BREEZE-M R/B 4.4 17:26:23 10° NW 17:44:37 76° NNE 17:49:19 10° ESE
STARLINK-1149 4.4 17:44:28 13° W 17:46:46 24° NW 17:49:36 10° N
H-2A R/B 4.2 17:49:53 10° WSW 17:50:00 10° WSW 17:50:07 10° WSW
Cosmos 1437 Rocket 3.3 17:47:21 10° SSW 17:51:02 37° W 17:54:44 10° NNW
Cosmos 1844 Rocket 2.7 17:46:11 10° SSW 17:51:51 87° WNW 17:57:27 10° NNE
Lacrosse 4 Rocket 1.8 17:49:31 10° SSW 17:53:35 66° ESE 17:57:40 10° NE
YAOGAN 6 3.7 17:50:32 10° NNE 17:54:03 49° ESE 17:57:36 10° S
AQUARIUS 4.2 17:51:37 10° NNE 17:56:09 83° WNW 18:00:45 10° SSW
SL-16 R/B 3.5 17:52:24 10° W 17:56:38 21° SW 18:00:54 10° S
Cosmos 2333 Rocket 2.6 17:51:00 10° NNW 17:56:40 71° ENE 18:02:27 10° SSE
Atlas Centaur 2 3.9 17:55:23 10° WNW 17:58:59 19° NNW 18:03:09 10° NNE
DELTA 2 R/B (1) 3.9 17:53:29 10° W 17:58:59 54° NNW 18:04:27 10° ENE
OAO 3 Rocket 4.1 17:54:44 10° WNW 17:59:03 35° NNW 18:03:26 10° NE
Cosmos 1371 Rocket 4.1 17:56:57 10° SSW 18:02:16 88° WNW 18:07:34 10° NNE
Lacrosse 5 2.6 17:57:42 10° WSW 18:02:18 33° NW 18:06:51 10° N
IRS-1C Rocket 4.2 17:58:31 10° NNE 18:03:48 87° WNW 18:09:10 10° SSW
PSLV R/B 4.0 17:59:54 10° S 18:04:05 65° WSW 18:08:14 10° NNW
STARLINK-1162 3.7 18:00:01 10° SW 18:04:15 76° NW 18:08:27 10° NE
Radarsat Rocket 4.4 18:01:04 10° NNW 18:06:34 40° W 18:12:34 10° SSW
